Location: Les Jeannots
(43.2262°N, 5.5774°E)
Time: 18:52:09
(UTC+00:00)

SPOT 1/Viking Rocket - Pass Details

Date: 05 July 2020
Orbit: 778 x 793 km, 98.5° (Epoch: 12 August)

Event Time Altitude Azimuth Distance (km) Brightness Sun altitude
Exits shadow 21:31:53 17° 197° (SSW) 1,881 5.1 -17.6°
Maximum altitude 21:35:30 43° 262° (W) 1,097 4.4 -17.9°
Drops below altitude 10° 21:40:25 10° 333° (NNW) 2,348 7.3 -18.4°
Sets 21:42:52 0° 340° (NNW) 3,283 8.4 -18.6°
